[[{"header":{"parameterUnit":"m.s-1","parameterCategory":1,"la1":30.2991,"la2":30.254,"lo1":-89.0895,"lo2":-89.0444,"dy":0.0017,"dx":0.0017,"nx":28,"ny":28,"refTime":"2023-09-28T03:00:00:Z","depth":0,"parameterNumber":2,"parameterNumberName":"U-component_of_WINDS"},"data":[0,0,0,0,0,0,0,0,0,0,0,0,0,0,0,0,0,0,0,0,0,0,0,0,0,0,0,0,0,0,0,0,0,0,0,0,0,0,0,0,0,0,0,0,0,0,0,0,0,0,0,0,0,0,0,0,0,0,-1.6808,-1.6808,0,-1.6831,-1.6832,-1.6832,-1.6762,-1.676,-1.6758,-1.6756,-1.6783,-1.6786,-1.6789,0,0,0,0,0,0,0,0,0,0,0,0,0,-1.6703,-1.6706,-1.6808,-1.6808,-1.6808,-1.6831,-1.6832,-1.6832,-1.6763,-1.676,-1.6758,-1.6755,-1.6782,-1.6786,-1.6789,0,0,0,0,0,0,0,0,0,0,0,0,0,-1.674,-1.6707,-1.6808,-1.6776,-1.6774,-1.6831,-1.6832,-1.6832,-1.6763,-1.676,-1.6757,-1.6754,-1.6781,-1.6785,-1.6789,-1.6879,0,0,-1.6802,-1.6803,0,0,0,0,0,0,0,0,-1.6738,-1.6744,-1.6781,-1.6779,-1.6776,-1.6791,-1.6805,-1.6848,-1.6764,-1.6767,-1.6756,-1.6752,-1.6788,-1.6792,-1.6803,-1.688,-1.6881,-1.6802,-1.6805,-1.6806,-1.6807,0,0,0,0,0,0,0,-1.6736,-1.6743,-1.6817,-1.6781,-1.6778,-1.6762,-1.6763,-1.6813,-1.6796,-1.6767,-1.6762,-1.6766,-1.6787,-1.68,-1.6803,-1.6882,-1.6802,-1.6806,-1.6808,-1.681,-1.7033,-1.7036,0,0,0,0,0,0,-1.6737,-1.6741,-1.6816,-1.6818,-1.6749,-1.6766,-1.6768,-1.6789,-1.6795,-1.6793,-1.6768,-1.6762,-1.6794,-1.6799,-1.6804,-1.691,-1.6806,-1.681,-1.6812,-1.7029,-1.7034,-1.7037,0,0,0,0,0,0,-1.6735,-1.6744,-1.6815,-1.6778,-1.6786,-1.6771,-1.6796,-1.6791,-1.6804,-1.6796,-1.6793,-1.6785,-1.6792,-1.6798,-1.6861,-1.691,-1.6812,-1.6816,-1.7025,-1.7031,-1.7036,-1.7122,0,0,0,0,0,0,-1.6732,-1.6744,-1.6778,-1.6779,-1.6788,-1.6871,-1.6799,-1.6794,-1.6811,-1.6804,-1.6811,-1.6809,-1.679,-1.6855,-1.6865,-1.6914,-1.6819,-1.7021,-1.7028,-1.7034,-1.7115,-1.713,-1.7142,0,0,0,0,0,-1.6729,-1.6802,-1.678,-1.6789,-1.683,-1.6874,-1.6879,-1.6855,-1.6815,-1.685,-1.6844,-1.6808,-1.6902,-1.6862,-1.6872,-1.6923,-1.7018,-1.7026,-1.7033,-1.7109,-1.7127,-1.7142,0,0,0,0,0,0,-1.6808,-1.6802,-1.6777,-1.6853,-1.6864,-1.6862,-1.6905,-1.6875,-1.6899,-1.6891,-1.6861,-1.6863,-1.6931,-1.6933,-1.6888,-1.701,-1.6953,-1.6964,-1.7007,-1.7024,-1.7037,-1.7037,-1.6822,0,0,0,0,0,-1.6834,-1.687,-1.6862,-1.693,-1.6937,-1.692,-1.6938,-1.6919,-1.693,-1.6935,-1.6934,-1.6947,-1.6979,-1.7001,-1.703,-1.7114,-1.7115,-1.7154,-1.7168,-1.7179,-1.7189,-1.7233,-1.7251,-1.7063,-1.7063,-1.7063,0,0,-1.6889,-1.689,-1.6914,-1.6946,-1.6953,-1.6991,-1.6925,-1.6968,-1.6997,-1.6942,-1.7001,-1.7,-1.7012,-1.7086,-1.7118,-1.7089,-1.7241,-1.7189,-1.7198,-1.7202,-1.7243,-1.7261,-1.7277,-1.7068,-1.7067,-1.7067,0,0,-1.7008,-1.7012,-1.7069,-1.7076,-1.7087,-1.7075,-1.7088,-1.709,-1.7088,-1.7146,-1.7105,-1.7138,-1.7195,-1.7205,-1.7218,-1.734,-1.7308,-1.735,-1.7423,-1.7467,-1.7481,-1.7494,-1.7539,-1.7555,-1.7359,-1.736,-1.736,0,-1.7076,-1.7131,-1.7102,-1.7148,-1.7163,-1.7113,-1.7171,-1.718,-1.72,-1.7212,-1.7179,-1.7248,-1.7253,-1.7328,-1.7358,-1.7369,-1.7384,-1.735,-1.7481,-1.7494,-1.7506,-1.7548,-1.7565,-1.7365,-1.7364,-1.7364,-1.7363,0,-1.7214,-1.7253,-1.7297,-1.7317,-1.7337,-1.7389,-1.7367,-1.7391,-1.7369,-1.736,-1.742,-1.7424,-1.7453,-1.7469,-1.7448,-1.7541,-1.7523,-1.7486,-1.7429,-1.7529,-1.7569,-1.7584,-1.7372,-1.737,-1.7369,-1.7367,0,0,-1.7387,-1.7387,-1.7405,-1.7413,-1.742,-1.745,-1.7499,-1.7526,-1.7547,-1.7562,-1.7604,-1.7651,-1.7617,-1.7631,-1.7611,-1.7649,-1.7747,-1.7608,-1.7608,-1.7635,-1.785,-1.7879,-1.7899,-1.7725,-1.7728,-1.773,-1.785,0,-1.7505,-1.7589,-1.7563,-1.7648,-1.7684,-1.7636,-1.7679,-1.7688,-1.7681,-1.7711,-1.7703,-1.7738,-1.7689,-1.7698,-1.7733,-1.7727,-1.779,-1.7718,-1.7764,-1.7766,-1.7765,-1.7919,-1.795,-1.8063,-1.7865,-1.7867,-1.7869,0,-1.7656,-1.7676,-1.7764,-1.7764,-1.7778,-1.7817,-1.784,-1.7869,-1.7878,-1.787,-1.7886,-1.7857,-1.7906,-1.7846,-1.7913,-1.7865,-1.7882,-1.7882,-1.7885,-1.7891,-1.7825,-1.793,-1.8098,-1.8116,-1.7893,-1.7891,-1.7889,0,-1.7775,-1.7823,-1.7882,-1.7891,-1.7892,-1.7921,-1.7923,-1.7928,-1.7946,-1.7966,-1.7977,-1.8003,-1.8017,-1.8038,-1.8017,-1.7976,-1.8088,-1.8027,-1.8084,-1.8085,-1.8112,-1.8111,-1.8287,-1.812,-1.8119,-1.8119,-1.8119,0,-1.7912,-1.7968,-1.7936,-1.7973,-1.8034,-1.8003,-1.8065,-1.8062,-1.8067,-1.8102,-1.8062,-1.8096,-1.8066,-1.8097,-1.8081,-1.814,-1.8146,-1.8142,-1.8138,-1.8147,-1.8148,-1.8159,-1.8152,-1.8123,-1.8122,-1.8122,-1.8121,0,-1.8057,-1.8037,-1.8098,-1.8094,-1.8094,-1.8139,-1.8136,-1.817,-1.8158,-1.8204,-1.8213,-1.8196,-1.8231,-1.8211,-1.8248,-1.8237,-1.8313,-1.8297,-1.831,-1.8307,-1.8366,-1.8361,-1.8557,-1.8582,-1.8397,-1.8399,-1.84,0,-1.8146,-1.8188,-1.8188,-1.8208,-1.8212,-1.8246,-1.8263,-1.8234,-1.8254,-1.8267,-1.8299,-1.833,-1.8354,-1.8412,-1.8404,-1.8431,-1.8417,-1.8483,-1.8421,-1.8429,-1.842,-1.8418,-1.8423,-1.8497,-1.8499,-1.8501,-1.8502,0,-1.8308,-1.8296,-1.8322,-1.8345,-1.8367,-1.8384,-1.8397,-1.8417,-1.8387,-1.8412,-1.8446,-1.8465,-1.8501,-1.8533,-1.8556,-1.8558,-1.8527,-1.8521,-1.8537,-1.8548,-1.8554,-1.8553,-1.8347,-1.8518,-1.8516,-1.8515,-1.8514,-1.8514,-1.8429,-1.8464,-1.8469,-1.85,-1.8506,-1.8519,-1.8551,-1.8543,-1.8571,-1.8598,-1.8578,-1.862,-1.8627,-1.8654,-1.8661,-1.8693,-1.8667,-1.8688,-1.8694,-1.87,-1.8709,-1.8547,-1.8697,-1.8697,-1.8696,-1.8696,-1.8696,0,-1.859,-1.859,-1.8618,-1.8638,-1.8662,-1.8627,-1.864,-1.8663,-1.87,-1.8708,-1.8732,-1.8772,-1.8802,-1.8795,-1.8822,-1.885,-1.8836,-1.8858,-1.8857,-1.8858,-1.8731,-1.8716,-1.8869,-1.8869,-1.8869,-1.8869,-1.8869,-1.8869,-1.8677,-1.8735,-1.8723,-1.8783,-1.8782,-1.8822,-1.8832,-1.8844,-1.8851,-1.8897,-1.8922,-1.8916,-1.8919,-1.8946,-1.8972,-1.8969,-1.8982,-1.9011,-1.9003,-1.8884,-1.8867,-1.8851,-1.8837,-1.9013,-1.9013,-1.9128,-1.9129,-1.913]},{"header":{"parameterUnit":"m.s-1","parameterCategory":1,"la1":30.2991,"la2":30.254,"lo1":-89.0895,"lo2":-89.0444,"dy":0.0017,"dx":0.0017,"nx":28,"ny":28,"refTime":"2023-09-28T03:00:00:Z","depth":0,"parameterNumber":3,"parameterNumberName":"V-component_of_WINDS"},"data":[0,0,0,0,0,0,0,0,0,0,0,0,0,0,0,0,0,0,0,0,0,0,0,0,0,0,0,0,0,0,0,0,0,0,0,0,0,0,0,0,0,0,0,0,0,0,0,0,0,0,0,0,0,0,0,0,0,0,-0.1803,-0.1804,0,-0.19,-0.1901,-0.1903,-0.1971,-0.1971,-0.1972,-0.1972,-0.2071,-0.2073,-0.2075,0,0,0,0,0,0,0,0,0,0,0,0,0,-0.1672,-0.1674,-0.1803,-0.1804,-0.1805,-0.19,-0.1901,-0.1903,-0.1971,-0.1971,-0.1972,-0.1972,-0.207,-0.2073,-0.2075,0,0,0,0,0,0,0,0,0,0,0,0,0,-0.1745,-0.1675,-0.1802,-0.185,-0.1856,-0.19,-0.1902,-0.1903,-0.197,-0.1971,-0.1972,-0.1973,-0.2069,-0.2073,-0.2076,-0.208,0,0,-0.2086,-0.2087,0,0,0,0,0,0,0,0,-0.1741,-0.175,-0.1842,-0.1847,-0.1853,-0.1924,-0.1892,-0.1962,-0.197,-0.1927,-0.1972,-0.1973,-0.2021,-0.2029,-0.2045,-0.2084,-0.2089,-0.2086,-0.2088,-0.2089,-0.209,0,0,0,0,0,0,0,-0.1736,-0.1746,-0.1841,-0.1843,-0.185,-0.1866,-0.1877,-0.1906,-0.1968,-0.1931,-0.1936,-0.1947,-0.2025,-0.2042,-0.2048,-0.209,-0.2086,-0.2089,-0.2091,-0.2092,-0.2136,-0.2135,0,0,0,0,0,0,-0.1724,-0.1742,-0.1838,-0.1844,-0.1798,-0.1868,-0.188,-0.1901,-0.1968,-0.1979,-0.1946,-0.1949,-0.2036,-0.2044,-0.2052,-0.2061,-0.2089,-0.2092,-0.2094,-0.2137,-0.2136,-0.2135,0,0,0,0,0,0,-0.1721,-0.1732,-0.1834,-0.1794,-0.1809,-0.1869,-0.1891,-0.1902,-0.192,-0.198,-0.1991,-0.1952,-0.2037,-0.2047,-0.2072,-0.2065,-0.2094,-0.2096,-0.2138,-0.2137,-0.2135,-0.2078,0,0,0,0,0,0,-0.1717,-0.173,-0.1733,-0.1794,-0.181,-0.1854,-0.1891,-0.1903,-0.1925,-0.1931,-0.1989,-0.1999,-0.2038,-0.2067,-0.2075,-0.207,-0.2099,-0.2139,-0.2137,-0.2136,-0.2081,-0.2076,-0.2071,0,0,0,0,0,-0.1712,-0.1713,-0.1733,-0.1744,-0.1815,-0.1853,-0.1863,-0.1908,-0.1924,-0.1927,-0.1965,-0.1997,-0.2064,-0.2069,-0.2079,-0.2074,-0.2139,-0.2138,-0.2136,-0.2084,-0.2077,-0.2071,0,0,0,0,0,0,-0.165,-0.1722,-0.1745,-0.1766,-0.1803,-0.1865,-0.187,-0.1899,-0.1932,-0.1936,-0.1991,-0.2003,-0.2022,-0.2051,-0.2055,-0.2081,-0.2105,-0.2106,-0.2062,-0.2056,-0.2051,-0.2044,-0.2102,0,0,0,0,0,-0.1639,-0.1664,-0.1725,-0.1738,-0.1755,-0.1809,-0.1827,-0.1859,-0.1899,-0.1915,-0.1955,-0.1993,-0.2022,-0.2041,-0.2071,-0.2085,-0.2098,-0.2087,-0.2081,-0.2077,-0.2077,-0.2085,-0.2081,-0.213,-0.213,-0.213,0,0,-0.1616,-0.1658,-0.1671,-0.1726,-0.1759,-0.1783,-0.1822,-0.1846,-0.1864,-0.1919,-0.1945,-0.1975,-0.202,-0.204,-0.205,-0.2064,-0.2066,-0.2074,-0.207,-0.2073,-0.2083,-0.2079,-0.2074,-0.2128,-0.2129,-0.2129,0,0,-0.1587,-0.1622,-0.1636,-0.1667,-0.1716,-0.1751,-0.1754,-0.1811,-0.1833,-0.186,-0.1901,-0.1923,-0.1973,-0.2003,-0.2025,-0.2005,-0.2035,-0.2013,-0.1986,-0.1994,-0.199,-0.1987,-0.198,-0.1977,-0.2013,-0.2012,-0.2012,0,-0.1553,-0.1592,-0.1639,-0.1661,-0.1684,-0.1733,-0.1748,-0.1776,-0.1831,-0.1845,-0.186,-0.1922,-0.1956,-0.1983,-0.1978,-0.1994,-0.1999,-0.2008,-0.1987,-0.1984,-0.1982,-0.1976,-0.1973,-0.201,-0.201,-0.201,-0.201,0,-0.1547,-0.1573,-0.1578,-0.1631,-0.1654,-0.1671,-0.1721,-0.1738,-0.1767,-0.1801,-0.1827,-0.1869,-0.1908,-0.1917,-0.1945,-0.1947,-0.1954,-0.1977,-0.2003,-0.1974,-0.1969,-0.1967,-0.2005,-0.2006,-0.2007,-0.2008,0,0,-0.1484,-0.1561,-0.1563,-0.1587,-0.1642,-0.1663,-0.1682,-0.1721,-0.1734,-0.177,-0.1787,-0.1827,-0.1848,-0.1873,-0.1905,-0.1911,-0.1893,-0.1934,-0.1935,-0.1925,-0.1897,-0.188,-0.1877,-0.1912,-0.1912,-0.1912,-0.1893,0,-0.1465,-0.1503,-0.1545,-0.1568,-0.1592,-0.1638,-0.1655,-0.169,-0.1721,-0.1745,-0.1779,-0.1807,-0.1833,-0.1848,-0.1856,-0.1893,-0.1888,-0.1895,-0.1929,-0.1929,-0.1917,-0.1874,-0.1857,-0.1838,-0.1892,-0.1891,-0.1891,0,-0.1448,-0.1481,-0.1506,-0.1558,-0.157,-0.1584,-0.1622,-0.1645,-0.1685,-0.1707,-0.1734,-0.1768,-0.1789,-0.181,-0.184,-0.1844,-0.186,-0.188,-0.188,-0.1886,-0.1909,-0.1879,-0.1833,-0.183,-0.1889,-0.1889,-0.1889,0,-0.14,-0.1451,-0.1472,-0.1491,-0.1553,-0.1561,-0.1587,-0.1629,-0.1648,-0.1681,-0.1695,-0.1729,-0.1748,-0.1774,-0.1815,-0.1827,-0.184,-0.1866,-0.1859,-0.1858,-0.1861,-0.1861,-0.1817,-0.187,-0.187,-0.187,-0.187,0,-0.1374,-0.1388,-0.1452,-0.1465,-0.1481,-0.1529,-0.1543,-0.1573,-0.1609,-0.1628,-0.1669,-0.1686,-0.174,-0.1763,-0.1796,-0.1815,-0.1823,-0.1841,-0.185,-0.1838,-0.1836,-0.1851,-0.1853,-0.1869,-0.1869,-0.1869,-0.1869,0,-0.1324,-0.1368,-0.1394,-0.145,-0.1464,-0.1473,-0.152,-0.1535,-0.1567,-0.1591,-0.1599,-0.165,-0.1679,-0.1723,-0.1765,-0.1787,-0.1801,-0.1815,-0.1788,-0.1793,-0.1784,-0.1785,-0.1749,-0.1747,-0.18,-0.1799,-0.1799,0,-0.1306,-0.1318,-0.1374,-0.139,-0.1414,-0.1439,-0.146,-0.1506,-0.1525,-0.1571,-0.1579,-0.1611,-0.164,-0.1684,-0.1724,-0.1756,-0.1772,-0.1757,-0.1777,-0.1764,-0.1772,-0.1771,-0.1773,-0.1753,-0.1752,-0.1751,-0.1751,0,-0.1268,-0.1289,-0.1317,-0.1352,-0.1375,-0.1404,-0.1436,-0.1446,-0.1499,-0.1519,-0.1549,-0.1571,-0.1613,-0.1645,-0.1682,-0.1708,-0.1738,-0.1744,-0.1744,-0.1733,-0.1717,-0.1726,-0.1776,-0.1745,-0.1745,-0.1746,-0.1746,-0.1746,-0.1235,-0.1247,-0.1288,-0.1317,-0.1345,-0.1373,-0.1389,-0.1423,-0.1449,-0.1488,-0.1513,-0.1541,-0.158,-0.1633,-0.1657,-0.168,-0.1693,-0.1693,-0.1693,-0.1693,-0.1689,-0.1712,-0.1686,-0.1687,-0.1687,-0.1687,-0.1687,0,-0.12,-0.1228,-0.1254,-0.1297,-0.1319,-0.1345,-0.1381,-0.1398,-0.1423,-0.1456,-0.1483,-0.1516,-0.1546,-0.1588,-0.1621,-0.1631,-0.1645,-0.1638,-0.1638,-0.1644,-0.1675,-0.1672,-0.1626,-0.1626,-0.1626,-0.1626,-0.1626,-0.1626,-0.1184,-0.1206,-0.1231,-0.1266,-0.1294,-0.1323,-0.1341,-0.1366,-0.1393,-0.1429,-0.1454,-0.1481,-0.1518,-0.1553,-0.1581,-0.1593,-0.1603,-0.1592,-0.1607,-0.1636,-0.1642,-0.1647,-0.1644,-0.1593,-0.1593,-0.1574,-0.1574,-0.1574]}]]